Weather History for China Lake, CA

Change the Weather History Date:

Tuesday, March 25, 2014

  Actual Average Record
Temperature  
Mean Temperature 62 °F -  
Max Temperature 82 °F 72 °F 82 °F (2007)
Min Temperature 41 °F 45 °F 34 °F (2002)
Degree Days  
Heating Degree Days 4    
Growing Degree Days 12 (Base 50)    
Moisture  
Dew Point 20 °F    
Average Humidity 21    
Maximum Humidity 36    
Minimum Humidity 8    
Precipitation  
Precipitation 0.00 in - - ()
Sea Level Pressure  
Sea Level Pressure 29.83 in    
Wind  
Wind Speed 9 mph (WSW)    
Max Wind Speed 22 mph    
Max Gust Speed 31 mph    
Visibility 10 miles    
Events      
Averages and records for this station are not official NWS values.
T = Trace of Precipitation, MM = Missing Value Source: NWS Daily Summary

Daily Weather History Graph

Daily Weather History Graph

Search for Another Location

Airport:

Trip Planner

Search our weather history database for the weather conditions in past years. The results will help you decide how hot, cold, wet, or windy it might be!

Date:

Astronomy

Mar. 25, 2014 Rise Set
Actual Time 6:47 AM PDT 7:06 PM PDT
Civil Twilight 6:21 AM PDT 7:32 PM PDT
Nautical Twilight 5:51 AM PDT 8:02 PM PDT
Astronomical Twilight 5:21 AM PDT 8:32 PM PDT
Moon 3:02 AM PDT (3/25) 1:52 PM PDT (3/25)
Length of Visible Light 13h 10m
Length of Day
12h 19m
Waning Crescent, 31% of the Moon is Illuminated
Mar 25
Waning Crescent
Mar 30
New
Apr 7
First Quarter
Apr 15
Full
Apr 22
Last Quarter

Hourly Weather History & Observations

Time (PDT) Temp. Windchill Dew Point Humidity Pressure Visibility Wind Dir Wind Speed Gust Speed Precip Events Conditions
12:56 AM 54.0 °F - 12.0 °F 19% 29.98 in 10.0 mi SSW 9.2 mph - N/A   Clear
1:56 AM 50.0 °F - 14.0 °F 24% 29.97 in 10.0 mi SW 8.1 mph - N/A   Clear
2:56 AM 48.0 °F - 17.1 °F 29% 29.95 in 10.0 mi SSW 9.2 mph - N/A   Clear
3:56 AM 44.1 °F - 14.0 °F 30% 29.94 in 10.0 mi Calm Calm - N/A   Clear
4:56 AM 44.1 °F - 15.1 °F 31% 29.93 in 10.0 mi Calm Calm - N/A   Clear
5:56 AM 42.1 °F 37.1 °F 16.0 °F 35% 29.92 in 10.0 mi WSW 8.1 mph - N/A   Clear
6:56 AM 41.0 °F - 16.0 °F 36% 29.94 in 10.0 mi Calm Calm - N/A   Clear
7:56 AM 50.0 °F - 18.0 °F 28% 29.94 in 10.0 mi Calm Calm - N/A   Clear
8:56 AM 60.1 °F - 15.1 °F 17% 29.93 in 10.0 mi NNW 4.6 mph - N/A   Clear
9:56 AM 63.0 °F - 16.0 °F 16% 29.92 in 10.0 mi Calm Calm - N/A   Clear
10:56 AM 71.1 °F - 17.1 °F 13% 29.90 in 10.0 mi NNE 4.6 mph - N/A   Clear
11:56 AM 77.0 °F - 19.0 °F 11% 29.86 in 10.0 mi NNW 5.8 mph - N/A   Partly Cloudy
12:56 PM 80.1 °F - 15.1 °F 9% 29.81 in 10.0 mi West 6.9 mph 23.0 mph N/A   Mostly Cloudy
1:56 PM 82.0 °F - 16.0 °F 8% 29.77 in 10.0 mi South 20.7 mph 28.8 mph N/A   Mostly Cloudy
2:56 PM 82.0 °F - 19.0 °F 10% 29.74 in 10.0 mi SW 15.0 mph 31.1 mph N/A   Mostly Cloudy
3:56 PM 81.0 °F - 23.0 °F 12% 29.71 in 10.0 mi West 10.4 mph 29.9 mph N/A   Mostly Cloudy
4:56 PM 78.1 °F - 26.1 °F 15% 29.70 in 10.0 mi West 21.9 mph 31.1 mph N/A   Partly Cloudy
5:56 PM 75.0 °F - 27.0 °F 17% 29.70 in 10.0 mi West 21.9 mph 26.5 mph N/A   Partly Cloudy
6:56 PM 70.0 °F - 27.0 °F 20% 29.71 in 10.0 mi WSW 13.8 mph 27.6 mph N/A   Partly Cloudy
7:56 PM 66.9 °F - 27.0 °F 22% 29.71 in 10.0 mi WSW 20.7 mph 26.5 mph N/A   Partly Cloudy
8:56 PM 66.0 °F - 28.9 °F 25% 29.72 in 10.0 mi SW 17.3 mph 25.3 mph N/A   Clear
9:56 PM 64.0 °F - 28.9 °F 27% 29.72 in 10.0 mi SW 13.8 mph - N/A   Clear
10:56 PM 62.1 °F - 28.0 °F 28% 29.69 in 10.0 mi SW 21.9 mph 25.3 mph N/A   Clear
11:56 PM 62.1 °F - 28.0 °F 28% 29.67 in 10.0 mi SSW 21.9 mph 28.8 mph N/A   Clear